Location: Bushrod
(6.3500°N, 10.7833°W)
Time: 15:01:46
(UTC+00:00)

ARIANE 5 R/B - Pass Details

Date: 17 September 2019
Orbit: 270 x 33634 km, 1.9° (Epoch: 15 October)

Event Time Altitude Azimuth Distance (km) Brightness Sun altitude
Rises 20:17:51 0° 245° (WSW) 2,009 6.1 -24.6°
Reaches altitude 10° 20:19:15 10° 229° (SW) 1,416 5.0 -25.0°
Enters shadow 20:20:17 21° 208° (SSW) 1,132 4.1 -25.2°
